Weather History for Ruston, LA

Change the Weather History Date:

Thursday, November 10, 2011

  Actual Average Record
Temperature  
Mean Temperature 52 °F -  
Max Temperature 62 °F 69 °F 89 °F (2001)
Min Temperature 39 °F 44 °F 25 °F (1991)
Degree Days  
Heating Degree Days 14    
Growing Degree Days 2 (Base 50)    
Moisture  
Dew Point 34 °F    
Average Humidity 55    
Maximum Humidity 93    
Minimum Humidity 26    
Precipitation  
Precipitation 0.00 in - - ()
Sea Level Pressure  
Sea Level Pressure 30.36 in    
Wind  
Wind Speed 6 mph (NNW)    
Max Wind Speed 15 mph    
Max Gust Speed 21 mph    
Visibility 10 miles    
Events      
Averages and records for this station are not official NWS values.
T = Trace of Precipitation, MM = Missing Value Source: NWS Daily Summary

Daily Weather History Graph

Daily Weather History Graph

Search for Another Location

Airport:

Trip Planner

Search our weather history database for the weather conditions in past years. The results will help you decide how hot, cold, wet, or windy it might be!

Date:

Astronomy

Nov. 10, 2011 Rise Set
Actual Time 6:35 AM CST 5:12 PM CST
Civil Twilight 6:09 AM CST 5:38 PM CST
Nautical Twilight 5:40 AM CST 6:08 PM CST
Astronomical Twilight 5:11 AM CST 6:37 PM CST
Moon 5:04 PM CST (11/10) 6:25 AM CST (11/10)
Length of Visible Light 11h 29m
Length of Day
10h 37m
Full, 100% of the Moon is Illuminated
Nov 10
Full
Nov 10
Full
Nov 18
Last Quarter
Nov 25
New
Dec 2
First Quarter

Hourly Weather History & Observations

Time (CST) Temp. Windchill Dew Point Humidity Pressure Visibility Wind Dir Wind Speed Gust Speed Precip Events Conditions
12:15 AM 50.0 °F - 37.4 °F 62% 30.35 in 10.0 mi NNW 4.6 mph - N/A   Clear
12:35 AM 50.0 °F - 37.4 °F 62% 30.35 in 10.0 mi NNW 6.9 mph - N/A   Clear
12:55 AM 50.0 °F - 37.4 °F 62% 30.35 in 10.0 mi NNW 5.8 mph - N/A   Clear
1:15 AM 50.0 °F - 37.4 °F 62% 30.35 in 10.0 mi NNW 5.8 mph - N/A   Clear
1:35 AM 50.0 °F - 37.4 °F 62% 30.35 in 10.0 mi NNW 5.8 mph - N/A   Clear
1:55 AM 48.2 °F - 37.4 °F 66% 30.37 in 10.0 mi NNW 4.6 mph - N/A   Clear
2:15 AM 48.2 °F - 37.4 °F 66% 30.36 in 10.0 mi NNW 5.8 mph - N/A   Clear
2:35 AM 48.2 °F - 37.4 °F 66% 30.37 in 10.0 mi NNW 5.8 mph - N/A   Clear
2:55 AM 48.2 °F - 37.4 °F 66% 30.35 in 10.0 mi NNW 5.8 mph - N/A   Clear
3:15 AM 46.4 °F 43.5 °F 37.4 °F 71% 30.36 in 10.0 mi NNW 5.8 mph - N/A   Clear
3:35 AM 46.4 °F 42.9 °F 37.4 °F 71% 30.35 in 10.0 mi NNW 6.9 mph - N/A   Clear
3:55 AM 46.4 °F 42.9 °F 37.4 °F 71% 30.35 in 10.0 mi NNW 6.9 mph - N/A   Clear
4:15 AM 44.6 °F 42.2 °F 35.6 °F 71% 30.35 in 10.0 mi NNW 4.6 mph - N/A   Clear
4:35 AM 44.6 °F 40.7 °F 35.6 °F 71% 30.35 in 10.0 mi NNW 6.9 mph - N/A   Clear
4:55 AM 44.6 °F 41.4 °F 35.6 °F 71% 30.36 in 10.0 mi NNW 5.8 mph - N/A   Clear
5:15 AM 44.6 °F 42.2 °F 35.6 °F 71% 30.36 in 10.0 mi NNW 4.6 mph - N/A   Clear
5:35 AM 44.6 °F 42.2 °F 35.6 °F 71% 30.37 in 10.0 mi NNW 4.6 mph - N/A   Clear
6:15 AM 41.0 °F - 37.4 °F 87% 30.38 in 10.0 mi Calm Calm - N/A   Clear
6:35 AM 42.8 °F - 35.6 °F 76% 30.38 in 10.0 mi Calm Calm - N/A   Clear
6:55 AM 42.8 °F - 35.6 °F 76% 30.38 in 10.0 mi Calm Calm - N/A   Clear
7:15 AM 42.8 °F - 35.6 °F 76% 30.39 in 10.0 mi Calm Calm - N/A   Clear
7:35 AM 42.8 °F 41.1 °F 35.6 °F 76% 30.39 in 10.0 mi NW 3.5 mph - N/A   Clear
7:55 AM 44.6 °F 42.2 °F 35.6 °F 71% 30.40 in 10.0 mi NNW 4.6 mph - N/A   Clear
8:15 AM 46.4 °F 42.4 °F 35.6 °F 66% 30.41 in 10.0 mi NNW 8.1 mph - N/A   Clear
8:35 AM 48.2 °F - 33.8 °F 58% 30.42 in 10.0 mi NNW 6.9 mph - N/A   Clear
8:55 AM 50.0 °F - 33.8 °F 54% 30.42 in 10.0 mi NNW 5.8 mph - N/A   Clear
9:15 AM 51.8 °F - 33.8 °F 50% 30.42 in 10.0 mi NNW 9.2 mph - N/A   Clear
9:55 AM 55.4 °F - 32.0 °F 41% 30.43 in 10.0 mi NW 10.4 mph 17.3 mph N/A   Clear
10:15 AM 55.4 °F - 30.2 °F 38% 30.43 in 10.0 mi NNW 8.1 mph 17.3 mph N/A   Clear
10:35 AM 55.4 °F - 30.2 °F 38% 30.43 in 10.0 mi North 12.7 mph 18.4 mph N/A   Clear
10:55 AM 59.0 °F - 30.2 °F 34% 30.43 in 10.0 mi NNW 10.4 mph 16.1 mph N/A   Clear
11:15 AM 59.0 °F - 30.2 °F 34% 30.42 in 10.0 mi North 15.0 mph - N/A   Clear
11:35 AM 59.0 °F - 32.0 °F 36% 30.41 in 10.0 mi NNW 9.2 mph - N/A   Clear
11:55 AM 60.8 °F - 30.2 °F 31% 30.40 in 10.0 mi North 10.4 mph 16.1 mph N/A   Clear
12:15 PM 60.8 °F - 28.4 °F 29% 30.39 in 10.0 mi North 15.0 mph 19.6 mph N/A   Clear
12:35 PM 60.8 °F - 28.4 °F 29% 30.38 in 10.0 mi North 10.4 mph 19.6 mph N/A   Clear
12:55 PM 60.8 °F - 28.4 °F 29% 30.37 in 10.0 mi North 15.0 mph 20.7 mph N/A   Clear
1:15 PM 62.6 °F - 28.4 °F 27% 30.36 in 10.0 mi North 11.5 mph 20.7 mph N/A   Clear
1:35 PM 62.6 °F - 26.6 °F 26% 30.34 in 10.0 mi NNW 11.5 mph - N/A   Clear
2:15 PM 62.6 °F - 26.6 °F 26% 30.34 in 10.0 mi North 15.0 mph 18.4 mph N/A   Clear
2:35 PM 62.6 °F - 26.6 °F 26% 30.33 in 10.0 mi North 12.7 mph 18.4 mph N/A   Clear
2:55 PM 62.6 °F - 26.6 °F 26% 30.32 in 10.0 mi North 11.5 mph 19.6 mph N/A   Clear
3:15 PM 62.6 °F - 26.6 °F 26% 30.32 in 10.0 mi NNW 11.5 mph 16.1 mph N/A   Clear
3:35 PM 62.6 °F - 26.6 °F 26% 30.31 in 10.0 mi North 11.5 mph 18.4 mph N/A   Clear
3:55 PM 62.6 °F - 28.4 °F 27% 30.31 in 10.0 mi NNW 9.2 mph 19.6 mph N/A   Clear
4:15 PM 62.6 °F - 28.4 °F 27% 30.31 in 10.0 mi NNW 4.6 mph - N/A   Clear
4:35 PM 60.8 °F - 28.4 °F 29% 30.31 in 10.0 mi NNW 4.6 mph - N/A   Clear
4:55 PM 59.0 °F - 28.4 °F 31% 30.31 in 10.0 mi NNW 6.9 mph - N/A   Clear
5:15 PM 59.0 °F - 30.2 °F 34% 30.31 in 10.0 mi Calm Calm - N/A   Clear
5:35 PM 51.8 °F - 35.6 °F 54% 30.31 in 10.0 mi Calm Calm - N/A   Clear
5:55 PM 50.0 °F - 37.4 °F 62% 30.31 in 10.0 mi Calm Calm - N/A   Clear
6:15 PM 46.4 °F - 37.4 °F 71% 30.31 in 10.0 mi Calm Calm - N/A   Clear
6:55 PM 44.6 °F - 37.4 °F 76% 30.31 in 10.0 mi Calm Calm - N/A   Clear
7:15 PM 42.8 °F - 37.4 °F 81% 30.31 in 10.0 mi Calm Calm - N/A   Clear
7:35 PM 42.8 °F 41.1 °F 37.4 °F 81% 30.31 in 10.0 mi SSE 3.5 mph - N/A   Clear
7:55 PM 41.0 °F 39.0 °F 37.4 °F 87% 30.30 in 10.0 mi South 3.5 mph - N/A   Clear
8:15 PM 41.0 °F - 37.4 °F 87% 30.30 in 10.0 mi Calm Calm - N/A   Clear
8:35 PM 39.2 °F - 37.4 °F 93% 30.31 in 10.0 mi Calm Calm - N/A   Clear
8:55 PM 41.0 °F 39.0 °F 37.4 °F 87% 30.31 in 10.0 mi SSE 3.5 mph - N/A   Clear
9:15 PM 39.2 °F 37.0 °F 37.4 °F 93% 30.30 in 10.0 mi SSE 3.5 mph - N/A   Clear
9:35 PM 39.2 °F 37.0 °F 37.4 °F 93% 30.30 in 10.0 mi SSE 3.5 mph - N/A   Clear
10:15 PM 37.4 °F 34.9 °F 37.4 °F 100% 30.31 in 10.0 mi SSE 3.5 mph - N/A   Clear
10:35 PM 41.0 °F 39.0 °F 37.4 °F 87% 30.31 in 10.0 mi SSE 3.5 mph - N/A   Clear
10:55 PM 41.0 °F 39.0 °F 35.6 °F 81% 30.31 in 10.0 mi SSW 3.5 mph - N/A   Clear
11:15 PM 41.0 °F - 35.6 °F 81% 30.31 in 10.0 mi Calm Calm - N/A   Clear
11:35 PM 41.0 °F - 37.4 °F 87% 30.30 in 10.0 mi Calm Calm - N/A   Clear
11:55 PM 37.4 °F - 35.6 °F 93% 30.30 in 10.0 mi Calm Calm - N/A   Clear